GW3878 Weather Reports


Display with metric or nautical units.
time (UTC)temp
F
wind
direction
speed
MPH
gust
MPH
rain 1hr
in
rain 24hr
in
rain mn
in
humidity
%
barometer
mb
20260506045038 61 360 1.0 5.0 0.00 0.00 0.00 81 1016.0
20260506044539 62 360 0.0 4.0 0.00 0.00 0.00 81 1016.1
20260506044036 62 360 0.0 3.0 0.00 0.00 0.00 80 1016.1
20260506043535 62 360 0.0 3.0 0.00 0.00 0.00 80 1016.2
20260506043044 62 360 1.0 3.0 0.00 0.00 0.00 80 1016.3
20260506042534 62 360 1.0 3.0 0.00 0.00 0.00 79 1016.3
20260506042033 62 360 0.0 3.0 0.00 0.00 0.00 78 1016.3
20260506041536 63 360 1.0 3.0 0.00 0.00 0.00 78 1016.3
20260506041033 63 360 1.0 5.0 0.00 0.00 0.00 78 1016.2
20260506040530 63 360 2.0 6.0 0.00 0.00 0.00 77 1016.3
20260506040042 63 360 2.0 6.0 0.00 0.00 0.00 77 1016.3
20260506035529 63 360 2.0 5.0 0.00 0.00 0.00 76 1016.3
20260506035029 63 360 2.0 5.0 0.00 0.00 0.00 76 1016.4
20260506034529 63 360 1.0 4.0 0.00 0.00 0.00 76 1016.5
20260506034028 64 360 1.0 4.0 0.00 0.00 0.00 75 1016.4
20260506033528 64 360 2.0 6.0 0.00 0.00 0.00 75 1016.4
20260506033029 64 360 2.0 6.0 0.00 0.00 0.00 75 1016.4
20260506032528 64 360 2.0 8.0 0.00 0.00 0.00 75 1016.4
20260506032028 64 360 2.0 5.0 0.00 0.00 0.00 74 1016.5
20260506031528 64 360 2.0 6.0 0.00 0.00 0.00 74 1016.5
20260506031028 64 360 3.0 6.0 0.00 0.00 0.00 74 1016.5
20260506030527 64 360 2.0 8.0 0.00 0.00 0.00 74 1016.5
20260506030028 64 360 2.0 6.0 0.00 0.00 0.00 74 1016.5
20260506025527 65 360 1.0 14.0 0.00 0.00 0.00 74 1016.4
20260506025027 65 360 3.0 14.0 0.00 0.00 0.00 73 1016.3
20260506024535 65 360 1.0 11.0 0.00 0.00 0.00 73 1016.3
20260506024027 65 360 2.0 11.0 0.00 0.00 0.00 73 1016.3
20260506023529 65 360 4.0 6.0 0.00 0.00 0.00 73 1016.3
20260506023026 65 360 2.0 8.0 0.00 0.00 0.00 73 1016.3
20260506022527 65 360 2.0 6.0 0.00 0.00 0.00 73 1016.3
20260506022026 65 360 2.0 6.0 0.00 0.00 0.00 72 1016.3
20260506021541 66 360 1.0 6.0 0.00 0.00 0.00 72 1016.3
20260506021026 66 360 2.0 6.0 0.00 0.00 0.00 72 1016.3
20260506020528 66 360 3.0 5.0 0.00 0.00 0.00 72 1016.2
20260506020025 66 360 2.0 8.0 0.00 0.00 0.00 72 1016.1
20260506015525 66 197 2.0 11.0 0.00 0.00 0.00 72 1016.1
20260506015025 66 360 4.0 11.0 0.00 0.00 0.00 72 1016.0
20260506014526 66 360 4.0 10.0 0.00 0.00 0.00 72 1016.1
20260506014024 67 360 4.0 10.0 0.00 0.00 0.00 72 1015.9
20260506013526 67 360 3.0 10.0 0.00 0.00 0.00 72 1015.9
20260506013025 67 360 3.0 12.0 0.00 0.00 0.00 72 1015.8
20260506012524 67 360 4.0 12.0 0.00 0.00 0.00 72 1015.9
20260506012025 67 360 4.0 11.0 0.00 0.00 0.00 72 1015.8
20260506011527 67 360 2.0 8.0 0.00 0.00 0.00 71 1015.8
20260506011025 68 360 2.0 9.0 0.00 0.00 0.00 71 1015.7
20260506010523 68 360 3.0 9.0 0.00 0.00 0.00 70 1015.7
20260506010023 68 360 3.0 11.0 0.00 0.00 0.00 70 1015.6
20260506005523 68 360 4.0 11.0 0.00 0.00 0.00 70 1015.5
20260506005026 68 208 3.0 11.0 0.00 0.00 0.00 70 1015.4
20260506004522 69 165 4.0 8.0 0.00 0.00 0.00 69 1015.3
20260506004022 69 360 3.0 9.0 0.00 0.00 0.00 69 1015.3
20260506003524 69 360 4.0 9.0 0.00 0.00 0.00 69 1015.3
20260506003023 69 360 2.0 9.0 0.00 0.00 0.00 69 1015.1
20260506002526 69 360 3.0 6.0 0.00 0.00 0.00 68 1015.1
20260506002022 69 360 2.0 6.0 0.00 0.00 0.00 68 1015.0
20260506001522 70 360 3.0 12.0 0.00 0.00 0.00 67 1014.9
20260506001022 70 360 3.0 9.0 0.00 0.00 0.00 67 1015.0
20260506000521 70 360 3.0 9.0 0.00 0.00 0.00 66 1014.9
20260506000022 71 167 2.0 10.0 0.00 0.00 0.00 66 1014.8
20260505235521 71 158 3.0 11.0 0.00 0.00 0.00 65 1014.8
20260505235021 71 183 2.0 9.0 0.00 0.00 0.00 65 1014.9
20260505234521 71 147 3.0 9.0 0.00 0.00 0.00 65 1014.9
20260505234020 72 156 2.0 7.0 0.00 0.00 0.00 64 1014.9
20260505233622 72 161 2.0 7.0 0.00 0.00 0.00 64 1014.9
20260505233019 72 165 3.0 14.0 0.00 0.00 0.00 63 1015.0
20260505232519 73 167 4.0 14.0 0.00 0.00 0.00 62 1014.8
20260505232019 73 189 4.0 9.0 0.00 0.00 0.00 62 1014.7
20260505231525 74 150 2.0 11.0 0.00 0.00 0.00 60 1014.7
20260505231018 74 186 6.0 13.0 0.00 0.00 0.00 60 1014.6
20260505230518 75 136 6.0 13.0 0.00 0.00 0.00 59 1014.6
20260505230019 75 196 3.0 10.0 0.00 0.00 0.00 58 1014.7
20260505225518 75 169 4.0 11.0 0.00 0.00 0.00 57 1014.6
20260505225018 75 262 5.0 10.0 0.00 0.00 0.00 58 1014.5
20260505224526 76 186 5.0 11.0 0.00 0.00 0.00 56 1014.5
20260505224021 76 167 3.0 10.0 0.00 0.00 0.00 56 1014.6
20260505223517 76 171 5.0 12.0 0.00 0.00 0.00 55 1014.7
20260505223018 77 117 3.0 12.0 0.00 0.00 0.00 54 1014.7
20260505222517 77 166 3.0 9.0 0.00 0.00 0.00 54 1014.5
20260505222017 77 176 3.0 9.0 0.00 0.00 0.00 54 1014.4
20260505221516 77 142 3.0 8.0 0.00 0.00 0.00 54 1014.4
20260505221016 77 151 4.0 9.0 0.00 0.00 0.00 53 1014.4
20260505220515 77 135 3.0 7.0 0.00 0.00 0.00 53 1014.5
20260505220015 78 178 3.0 14.0 0.00 0.00 0.00 53 1014.4
20260505215514 78 128 3.0 14.0 0.00 0.00 0.00 53 1014.5
20260505215015 78 163 6.0 11.0 0.00 0.00 0.00 52 1014.5
20260505214515 78 153 5.0 10.0 0.00 0.00 0.00 53 1014.6
20260505214015 78 142 2.0 16.0 0.00 0.00 0.00 53 1014.5
20260505213514 78 158 5.0 17.0 0.00 0.00 0.00 53 1014.5
20260505213018 79 157 6.0 17.0 0.00 0.00 0.00 51 1014.4
20260505212518 79 209 3.0 14.0 0.00 0.00 0.00 51 1014.6
20260505212015 80 128 4.0 14.0 0.00 0.00 0.00 52 1014.5
20260505211531 80 150 4.0 12.0 0.00 0.00 0.00 51 1014.6
20260505211013 79 211 4.0 12.0 0.00 0.00 0.00 51 1014.4
20260505210516 79 152 5.0 10.0 0.00 0.00 0.00 51 1014.4
20260505210014 79 203 4.0 11.0 0.00 0.00 0.00 50 1014.5
20260505205517 79 115 3.0 8.0 0.00 0.00 0.00 49 1014.5
20260505205012 80 149 3.0 9.0 0.00 0.00 0.00 50 1014.3
20260505204512 79 194 3.0 9.0 0.00 0.00 0.00 51 1014.4
20260505204012 79 178 4.0 10.0 0.00 0.00 0.00 49 1014.3
20260505203511 79 148 2.0 12.0 0.00 0.00 0.00 49 1014.3
20260505203011 80 192 2.0 9.0 0.00 0.00 0.00 47 1014.4
20260505202511 80 179 2.0 12.0 0.00 0.00 0.00 48 1014.6
20260505202011 80 249 6.0 13.0 0.00 0.00 0.00 48 1014.6
20260505201510 79 193 4.0 13.0 0.00 0.00 0.00 50 1014.6
20260505201011 79 173 3.0 8.0 0.00 0.00 0.00 50 1014.8
20260505200508 79 197 4.0 10.0 0.00 0.00 0.00 49 1014.9
20260505200008 80 191 6.0 10.0 0.00 0.00 0.00 47 1014.9
20260505195508 79 178 3.0 8.0 0.00 0.00 0.00 47 1014.9
20260505195008 79 180 3.0 9.0 0.00 0.00 0.00 49 1015.0
20260505194508 80 192 3.0 10.0 0.00 0.00 0.00 47 1015.2
20260505194006 80 234 3.0 12.0 0.00 0.00 0.00 47 1015.1
20260505193506 81 183 5.0 14.0 0.00 0.00 0.00 48 1015.2
20260505193006 81 169 4.0 14.0 0.00 0.00 0.00 46 1015.4
20260505192504 81 259 3.0 15.0 0.00 0.00 0.00 48 1015.5
20260505192004 80 190 4.0 9.0 0.00 0.00 0.00 47 1015.5
20260505191503 80 157 2.0 15.0 0.00 0.00 0.00 46 1015.7
20260505191002 81 342 4.0 15.0 0.00 0.00 0.00 47 1015.8
20260505190502 80 216 3.0 11.0 0.00 0.00 0.00 47 1015.8
20260505190008 81 304 4.0 10.0 0.00 0.00 0.00 46 1016.0
20260505185502 81 144 5.0 10.0 0.00 0.00 0.00 46 1016.1
20260505185002 81 231 5.0 11.0 0.00 0.00 0.00 47 1016.1
20260505184501 81 114 2.0 10.0 0.00 0.00 0.00 49 1016.0
20260505184001 81 219 4.0 10.0 0.00 0.00 0.00 47 1016.3
20260505183501 81 159 4.0 11.0 0.00 0.00 0.00 48 1016.2
20260505183001 81 144 4.0 11.0 0.00 0.00 0.00 48 1016.2
20260505182605 81 100 4.0 9.0 0.00 0.00 0.00 48 1016.2
20260505182103 81 74 2.0 11.0 0.00 0.00 0.00 50 1016.2
20260505181600 80 94 4.0 11.0 0.00 0.00 0.00 48 1016.2
20260505181059 81 217 3.0 9.0 0.00 0.00 0.00 48 1016.3
20260505180558 81 159 1.0 7.0 0.00 0.00 0.00 49 1016.4
20260505180104 80 182 3.0 14.0 0.00 0.00 0.00 48 1016.5
20260505175557 80 238 5.0 14.0 0.00 0.00 0.00 49 1016.4
20260505175059 80 153 5.0 12.0 0.00 0.00 0.00 50 1016.4
20260505174556 80 146 1.0 10.0 0.00 0.00 0.00 51 1016.4
20260505174056 80 182 3.0 10.0 0.00 0.00 0.00 48 1016.6
20260505173558 79 170 3.0 9.0 0.00 0.00 0.00 51 1016.5
20260505173055 79 189 4.0 12.0 0.00 0.00 0.00 49 1016.7
20260505172558 79 160 4.0 12.0 0.00 0.00 0.00 52 1016.6
20260505172054 79 223 3.0 9.0 0.00 0.00 0.00 51 1016.6
20260505171557 79 177 4.0 10.0 0.00 0.00 0.00 49 1016.7
20260505171054 80 135 2.0 8.0 0.00 0.00 0.00 51 1016.6
20260505170553 79 230 1.0 10.0 0.00 0.00 0.00 52 1016.6
20260505170051 79 189 5.0 11.0 0.00 0.00 0.00 52 1016.8
20260505165551 78 179 4.0 11.0 0.00 0.00 0.00 50 1016.8
20260505165051 78 176 3.0 10.0 0.00 0.00 0.00 49 1016.9
20260505164651 78 259 3.0 10.0 0.00 0.00 0.00 53 1016.9
20260505164053 78 250 3.0 10.0 0.00 0.00 0.00 53 1017.1
20260505163552 78 165 1.0 7.0 0.00 0.00 0.00 55 1017.1
20260505163048 78 194 2.0 10.0 0.00 0.00 0.00 54 1017.1
20260505162550 77 246 5.0 12.0 0.00 0.00 0.00 53 1017.2
20260505162048 77 171 5.0 11.0 0.00 0.00 0.00 54 1017.2
20260505161547 77 269 5.0 11.0 0.00 0.00 0.00 55 1017.4
20260505161046 77 134 3.0 10.0 0.00 0.00 0.00 57 1017.4
20260505160548 77 167 4.0 10.0 0.00 0.00 0.00 55 1017.5
20260505153045 75 322 1.0 14.0 0.00 0.00 0.00 59 1017.6
20260505152539 75 223 6.0 14.0 0.00 0.00 0.00 58 1017.5
20260505152040 75 196 4.0 10.0 0.00 0.00 0.00 58 1017.7
20260505151544 75 117 3.0 10.0 0.00 0.00 0.00 61 1017.7
20260505151036 75 237 3.0 13.0 0.00 0.00 0.00 61 1017.6
20260505150536 75 158 3.0 13.0 0.00 0.00 0.00 63 1017.6
20260505140527 72 260 2.0 10.0 0.00 0.00 0.00 67 1017.5
20260505125006 65 179 1.0 6.0 0.00 0.00 0.00 76 1017.8
20260505124511 65 221 2.0 8.0 0.00 0.00 0.00 77 1017.8
20260505124003 64 177 1.0 8.0 0.00 0.00 0.00 79 1017.9
20260505123504 63 219 1.0 8.0 0.00 0.00 0.00 79 1017.8
20260505123001 63 236 1.0 6.0 0.00 0.00 0.00 81 1017.7
20260505122601 62 189 1.0 5.0 0.00 0.00 0.00 83 1017.7
20260505122059 61 173 1.0 4.0 0.00 0.00 0.00 83 1017.7
20260505121601 61 162 1.0 3.0 0.00 0.00 0.00 84 1017.7
20260505121058 60 157 1.0 6.0 0.00 0.00 0.00 84 1017.7
20260505120558 59 170 2.0 6.0 0.00 0.00 0.00 85 1017.7
20260505120112 59 210 0.0 5.0 0.00 0.00 0.00 87 1017.6
20260505115557 58 168 1.0 3.0 0.00 0.00 0.00 88 1017.6
20260505115056 58 165 0.0 2.0 0.00 0.00 0.00 89 1017.6
20260505114558 57 161 0.0 3.0 0.00 0.00 0.00 90 1017.5
20260505114056 56 360 0.0 3.0 0.00 0.00 0.00 91 1017.5
20260505113654 56 171 0.0 2.0 0.00 0.00 0.00 92 1017.4
20260505113103 55 171 0.0 2.0 0.00 0.00 0.00 93 1017.3
20260505112554 54 360 0.0 0.0 0.00 0.00 0.00 93 1017.3
20260505112054 54 360 0.0 0.0 0.00 0.00 0.00 93 1017.3
20260505111554 53 360 0.0 0.0 0.00 0.00 0.00 93 1017.3
20260505111053 52 360 0.0 0.0 0.00 0.00 0.00 93 1017.2
20260505110552 52 360 0.0 0.0 0.00 0.00 0.00 93 1017.2
20260505102046 52 360 0.0 0.0 0.00 0.00 0.00 91 1016.5
20260505101553 52 360 0.0 0.0 0.00 0.00 0.00 91 1016.5
20260505101044 52 360 0.0 0.0 0.00 0.00 0.00 91 1016.5
20260505100543 52 360 0.0 0.0 0.00 0.00 0.00 90 1016.5
20260505100043 53 360 0.0 0.0 0.00 0.00 0.00 90 1016.4
20260505095542 53 360 0.0 0.0 0.00 0.00 0.00 90 1016.4
20260505095045 53 360 0.0 0.0 0.00 0.00 0.00 90 1016.3
20260505094540 53 360 0.0 0.0 0.00 0.00 0.00 90 1016.2
20260505094040 53 360 0.0 0.0 0.00 0.00 0.00 90 1016.2
20260505093539 53 360 0.0 0.0 0.00 0.00 0.00 89 1016.2
20260505093049 53 360 0.0 0.0 0.00 0.00 0.00 89 1016.1
20260505092539 53 360 0.0 0.0 0.00 0.00 0.00 88 1016.1
20260505092040 53 360 0.0 0.0 0.00 0.00 0.00 89 1016.1
20260505091537 53 360 0.0 0.0 0.00 0.00 0.00 89 1016.1
20260505091036 54 360 0.0 0.0 0.00 0.00 0.00 88 1016.0
20260505090535 54 360 0.0 0.0 0.00 0.00 0.00 87 1015.9
20260505090035 54 360 0.0 0.0 0.00 0.00 0.00 87 1015.9
20260505085537 54 360 0.0 0.0 0.00 0.00 0.00 87 1015.8
20260505085034 54 360 0.0 0.0 0.00 0.00 0.00 87 1015.8
20260505084535 54 360 0.0 0.0 0.00 0.00 0.00 87 1015.9
20260505084033 54 360 0.0 0.0 0.00 0.00 0.00 87 1015.8
20260505083536 55 360 0.0 0.0 0.00 0.00 0.00 86 1015.7
20260505083039 55 360 0.0 0.0 0.00 0.00 0.00 86 1015.8
20260505082531 55 360 0.0 0.0 0.00 0.00 0.00 86 1015.8
20260505082031 55 360 0.0 0.0 0.00 0.00 0.00 85 1015.9
20260505081531 55 360 0.0 0.0 0.00 0.00 0.00 85 1015.8
20260505081033 55 360 0.0 0.0 0.00 0.00 0.00 85 1015.7
20260505080528 55 360 0.0 0.0 0.00 0.00 0.00 84 1015.7
20260505080034 55 360 0.0 0.0 0.00 0.00 0.00 84 1015.7
20260505075530 56 360 0.0 1.0 0.00 0.00 0.00 83 1015.8
20260505075027 56 360 0.0 1.0 0.00 0.00 0.00 83 1015.7
20260505074527 56 360 0.0 1.0 0.00 0.00 0.00 83 1015.7
20260505074026 56 360 0.0 1.0 0.00 0.00 0.00 82 1015.8
20260505073526 56 360 0.0 3.0 0.00 0.00 0.00 82 1015.7
20260505073025 56 360 0.0 3.0 0.00 0.00 0.00 81 1015.7
20260505072524 57 360 0.0 2.0 0.00 0.00 0.00 81 1015.7
20260505072024 57 360 0.0 3.0 0.00 0.00 0.00 81 1015.6
20260505071522 57 360 0.0 3.0 0.00 0.00 0.00 80 1015.5
20260505071022 57 360 0.0 2.0 0.00 0.00 0.00 80 1015.6
20260505070521 57 360 0.0 2.0 0.00 0.00 0.00 80 1015.6
20260505070024 58 360 0.0 3.0 0.00 0.00 0.00 79 1015.6
20260505065519 58 360 0.0 3.0 0.00 0.00 0.00 79 1015.5
20260505065018 58 360 0.0 2.0 0.00 0.00 0.00 78 1015.5
20260505064517 58 360 0.0 4.0 0.00 0.00 0.00 78 1015.6
20260505064016 58 360 1.0 4.0 0.00 0.00 0.00 78 1015.6
20260505063515 59 360 1.0 4.0 0.00 0.00 0.00 78 1015.6
20260505063015 59 360 0.0 4.0 0.00 0.00 0.00 77 1015.6
20260505062515 59 360 0.0 4.0 0.00 0.00 0.00 77 1015.6
20260505062013 59 360 1.0 4.0 0.00 0.00 0.00 77 1015.7
20260505061515 59 360 1.0 5.0 0.00 0.00 0.00 77 1015.7
20260505061013 59 360 1.0 5.0 0.00 0.00 0.00 76 1015.7
20260505060511 59 360 1.0 4.0 0.00 0.00 0.00 76 1015.8
20260505060011 59 360 1.0 4.0 0.00 0.00 0.00 76 1015.8
20260505055510 59 360 0.0 4.0 0.00 0.00 0.00 75 1015.9
20260505055011 60 360 1.0 5.0 0.00 0.00 0.00 75 1015.9
20260505054509 60 360 1.0 5.0 0.00 0.00 0.00 75 1015.9
20260505054009 60 360 1.0 5.0 0.00 0.00 0.00 75 1016.0
20260505053508 60 360 0.0 5.0 0.00 0.00 0.00 75 1016.0
20260505053014 60 360 1.0 5.0 0.00 0.00 0.00 75 1016.1
20260505052507 60 360 1.0 5.0 0.00 0.00 0.00 74 1016.2
20260505052007 60 360 1.0 5.0 0.00 0.00 0.00 74 1016.0
20260505051507 60 360 1.0 5.0 0.00 0.00 0.00 74 1016.1
20260505051006 60 360 1.0 5.0 0.00 0.00 0.00 74 1016.1
20260505050509 60 360 1.0 5.0 0.00 0.00 0.00 73 1016.2